Flag for Germany Weather past 2 weeks in Munich, Bavaria, Germany

Now
54 °F

Clear.


Feels Like: 52 °F
Forecast: 44 / 70 °F
Wind: 7 mph from Northeast

Location: Munich / Franz Josef Strauss Airport


UV Index: 3 (Moderate)

Visibility: 10 mi


Pressure: 29.95 "Hg

Humidity: 77%

Dew point: 46 °F

Location of MunichLocation

Historic Weather in Munich

°F

Munich temperature yesterday

Maximum temperature yesterday: 70 °F (at 4:20 PM)
Minimum temperature yesterday: 41 °F (at 3:50 AM)
Average temperature yesterday: 57 °F

Past Weeks' High & Low Weather Summary

 TemperatureHumidityPressure
High70 °F (Apr 23, 3:50 PM)100% (Apr 11, 2:50 AM)30.36 "Hg (Apr 11, 2:50 AM)
Low25 °F (Apr 17, 5:20 AM)34% (Apr 13, 6:50 PM)29.62 "Hg (Apr 21, 3:50 AM)
Average49 °F73%30.00 "Hg
* Reported Apr 10 12:20 AM — Apr 25 12:20 AM, Munich, Weather by CustomWeather, © 2014

Note: Actual official high and low records may vary slightly from our data, if they occured in-between our weather recording intervals... More about our weather records

Advertising

Historic Weather Conditions — Data for Previous 24 hours

 ConditionsComfort  
Time TempWeatherWind HumidityBarometerVisibility
12:20 AM
Apr 25
54 °FClear.6 mph72%29.95 "Hg10 mi
11:50 PM
Apr 24
54 °FClear.8 mph77%29.98 "Hg10 mi
11:20 PM55 °FClear.6 mph67%29.98 "Hg10 mi
10:50 PM55 °FClear.8 mph72%29.98 "Hg10 mi
10:20 PM59 °FClear.6 mph63%29.98 "Hg10 mi
9:50 PM57 °FClear.3 mph63%29.98 "Hg10 mi
9:20 PM59 °FClear.6 mph55%29.98 "Hg10 mi
8:50 PM63 °FSunny.3 mph52%29.98 "Hg10 mi
8:20 PM64 °FSunny.6 mph46%29.98 "Hg10 mi
7:50 PM66 °FSunny.6 mph43%29.98 "Hg10 mi
7:20 PM68 °FSunny.6 mph40%29.98 "Hg10 mi
6:50 PM68 °FSunny.6 mph38%29.98 "Hg10 mi
6:20 PM68 °FSunny.7 mph38%29.98 "Hg10 mi
5:50 PM68 °FSunny.7 mph40%29.98 "Hg10 mi
5:20 PM68 °FSunny.7 mph38%29.98 "Hg10 mi
4:50 PM68 °FPassing clouds.8 mph46%30.01 "HgN/A
4:20 PM70 °FSunny.3 mph38%30.01 "Hg10 mi
3:50 PM68 °FSunny.8 mph43%30.01 "Hg10 mi
3:20 PM66 °FSunny.9 mph46%30.04 "Hg10 mi
2:50 PM66 °FPassing clouds.10 mph49%30.04 "HgN/A
2:20 PM66 °FPassing clouds.10 mph52%30.04 "HgN/A
1:50 PM68 °FPassing clouds.8 mph46%30.07 "HgN/A
1:20 PM68 °FPassing clouds.8 mph49%30.07 "HgN/A
12:50 PM66 °FPassing clouds.8 mph56%30.07 "HgN/A
12:20 PM66 °FPassing clouds.7 mph56%30.09 "HgN/A
11:50 AM64 °FPassing clouds.6 mph60%30.09 "HgN/A
11:20 AM64 °FPassing clouds.5 mph56%30.09 "HgN/A
10:50 AM63 °FSunny.2 mph64%30.09 "Hg10 mi
10:20 AM59 °FSunny.2 mph63%30.09 "Hg10 mi
9:20 AM55 °FSunny.1 mph77%30.09 "Hg10 mi
8:50 AM52 °FSunny.1 mph82%30.09 "Hg10 mi
8:20 AM50 °FSunny.1 mph88%30.09 "Hg10 mi
7:50 AM48 °FSunny.1 mph87%30.09 "Hg10 mi
7:20 AM43 °FFog.2 mph87%30.09 "HgN/A
6:50 AM41 °FFog.1 mph93%30.09 "HgN/A
6:20 AM41 °FFog.2 mph93%30.07 "HgN/A
5:50 AM41 °FQuite cool.3 mph93%30.07 "HgN/A
5:20 AM43 °FFog.2 mph87%30.07 "HgN/A
4:50 AM43 °FFog.2 mph93%30.07 "HgN/A
4:20 AM43 °FFog.1 mph93%30.07 "HgN/A
3:50 AM41 °FQuite cool.1 mph93%30.07 "HgN/A
3:20 AM43 °FClear.2 mph93%30.07 "Hg10 mi
2:50 AM45 °FClear.3 mph87%30.07 "Hg10 mi
2:20 AM46 °FClear.1 mph87%30.07 "Hg10 mi
1:50 AM46 °FClear.3 mph87%30.07 "Hg10 mi
1:20 AM46 °FClear.2 mph82%30.07 "Hg10 mi
Weather by CustomWeather, © 2014

See weather overview